Vertical_Velocity
-1 0 2 -5 -2 0 3 -11 0 -11 -1 -5 -4 -4 -4 -5 5 5 3 2 4 1 1 1 1 1 -2 -2 -5 -3 -2 -3 -3 -3 -2 -1 -1 -1 1 2 4 1 -3 -1
2 1 -1 -0 0 0 0 1 2 1 -2 -8 0 2 4 -0 1 0 2 3 1 1 -0 -1 -2 -4 -3 -5 -4 -5 -3 -0 -0 -1 -1 -4 -3 -4 1 -4 -4 -5 1 -2
-1 -0 -1 -0 -6 -1 -0 0 -6 -2 -6 -1 6 2 -2 2 1 0 1 1 0 -1 -1 0 -1 -1 -4 -2 -0 1 -2 -2 -2 -4 -4 -5 -2 -4 -5 -2 -4 -2 -2 -2
-0 -1 2 -6 -0 -3 -3 -2 0 1 -1 -5 -8 2 2 9 -6 -2 -0 0 1 0 1 0 -2 -4 -1 -1 -0 -1 -1 -3 -4 -4 -5 -1 -3 -0 -1 -1 -2 -1 -1 -1
-2 -1 -6 3 -1 -5 -8 -11 -3 -2 1 1 9 -4 3 4 6 -0 2 2 0 -0 -5 -4 -0 2 1 1 2 -1 -6 -3 -4 -2 -3 -3 -3 -2 -7 -4 -3 -2 -3 -4
1 -1 -4 -1 -1 0 -3 -6 -1 -4 0 -3 3 1 1 8 6 4 2 -2 -4 -4 -1 2 -0 0 2 -1 -7 -4 -6 -5 -6 -3 -3 -5 -4 -3 2 -0 -3 -3 -6 -0
1 -1 -8 -4 -0 0 -3 -15 0 -5 -5 -3 -3 -5 -6 2 3 1 -3 -9 -4 0 1 0 0 -3 -8 -7 -5 -3 -3 -2 -1 -1 -0 -3 -4 3 -2 -5 -4 0 -2 -2
1 0 -9 -2 3 -6 -9 3 0 5 1 1 -2 0 -2 -3 -7 -6 -5 -0 5 2 0 -4 -6 -5 -5 -3 -2 -3 -3 -1 1 -1 -2 -2 3 -3 -1 -2 -0 -2 -3 -7
-10 -13 -2 -0 -1 1 -0 -11 6 -15 5 -10 -7 0 1 1 -1 1 2 -0 -1 -1 -3 -4 -3 -2 -1 -0 -4 -4 -1 -1 -1 -1 0 1 -2 -4 -5 1 2 -3 -1 -4
-5 -3 -1 0 8 2 6 -10 0 5 -2 -0 -10 2 2 -0 0 -0 -0 0 1 -3 -3 -0 -1 -4 -6 -3 -1 -1 -3 -1 -1 -4 -1 -0 -3 0 -1 2 -2 -2 -1 -2
-3 0 2 6 2 -7 2 4 -1 6 -4 -5 -4 4 -2 -2 1 1 2 1 -1 -1 -3 -5 -4 -4 0 -0 -1 -1 -2 -4 -2 2 -1 -4 -3 -3 -1 2 2 -1 -1 -1
-9 -5 -6 -6 -0 1 -7 -3 1 -8 2 7 -2 -4 -1 -0 -0 -1 -2 -3 -4 -4 -4 -4 -1 0 -1 -2 -3 -2 0 -4 4 -1 -4 -1 -3 -8 6 4 -3 1 1 4
-4 -1 -2 -6 4 7 -11 -6 1 -3 0 -6 1 -3 -3 -5 -2 -1 -2 -3 -2 -4 -1 -1 -2 -1 0 0 -1 -2 -3 1 1 -4 -2 -7 -5 -1 -6 -14 -1 4 1 -3
1 -3 10 2 -11 1 -5 -1 2 3 1 -3 -4 0 -3 -2 -3 -4 -3 -3 -2 -0 -3 -2 -1 -1 -3 -3 -1 -4 0 4 -7 -3 -2 -3 -0 -2 -0 -1 -5 -15 -0 -1
-0 2 -11 -5 10 9 7 -0 -1 -2 -3 -1 1 -3 -1 -1 -2 -4 -3 -1 -1 -1 -2 -1 0 2 -2 -4 -1 2 3 1 -2 -5 -1 2 0 -2 -2 -3 0 -0 -5 -3
6 5 5 -1 1 1 -2 4 -2 -0 2 2 -1 -0 -3 -4 -1 -0 -0 -2 -4 -3 0 -2 -2 2 -2 -1 -1 1 -3 -3 -4 -2 0 -2 -1 -3 -4 -4 -2 1 -0 -0
-6 9 10 6 -3 -3 -9 -4 -2 -6 -1 1 -2 0 0 1 2 1 -1 -2 -2 -1 1 -1 -5 -3 2 1 1 -3 -5 -1 0 1 2 -1 -1 -1 -1 -3 -2 -2 -1 2
-1 -0 6 -8 -11 -8 -0 2 3 2 -3 -2 -2 1 2 -0 -6 -1 -1 4 -0 -4 -6 -3 4 0 -4 1 -0 -4 -3 1 -1 -1 -1 -2 -2 -1 -1 -1 -2 -2 -3 1
-0 -2 3 -2 -4 -2 -0 -2 -4 -3 1 0 -1 -2 -0 1 -1 -1 2 -0 -3 -1 -11 9 8 2 -3 -0 -1 -1 1 1 0 -1 0 -2 -3 -1 -1 -1 -1 -2 -1 -0
2 6 5 3 4 -1 -2 5 4 5 4 3 1 -1 -2 -2 -1 -0 4 1 3 0 7 3 2 -0 -3 -2 3 1 2 1 1 -1 -2 -2 -1 -2 -2 -1 -1 -2 -1 -1
1 2 1 3 3 5 6 3 -0 -1 -2 -2 -1 0 1 3 2 3 -0 -2 -0 3 1 1 -1 -5 -1 0 3 4 2 1 1 -0 -1 -2 -3 -2 -2 -2 -2 -1 -3 -0
0 -3 -1 -1 -2 -2 1 -0 -1 -2 -2 -1 -0 1 3 2 1 -2 -1 -3 0 -0 -2 -2 0 0 0 2 4 4 1 2 1 1 -0 -0 -1 -1 -1 -2 -2 -2 -1 -1
1 3 1 2 1 -2 -3 -4 -1 1 1 2 1 1 1 -1 -0 -1 -1 -2 -2 -1 -2 -3 -1 3 6 12 12 9 5 1 -2 -1 -0 1 1 1 0 -2 -2 -1 -1 -1
-1 1 0 1 0 1 1 1 1 0 -1 -3 -4 -3 -3 -3 -1 -0 -1 2 1 1 -1 1 4 2 2 2 -0 -4 -5 2 2 1 0 -0 -2 -1 -1 -1 -2 -2 -2 -1
0 -1 0 1 0 0 -0 -1 -2 -1 -1 -1 -2 -3 -4 -3 -2 -3 -3 -2 -0 -0 -1 0 1 -0 1 1 1 2 2 1 -1 -1 -2 -2 -2 -1 -1 -0 -1 -1 -1 -2
0 -0 -0 -1 -2 -2 -1 -1 -1 -0 0 -2 -4 -4 -3 -2 -1 -1 -1 -1 -2 -1 -0 0 1 1 1 1 1 1 -0 -1 1 0 1 -0 -1 -2 -3 -2 -2 -1 -1 -2
-1 -1 -1 -1 -1 -2 -1 -1 -3 -3 -2 -2 -1 -0 -1 0 1 1 3 1 2 2 1 -1 -2 -2 -3 -2 -1 -0 -1 -1 1 0 0 -3 -3 -2 -1 -0 -2 -3 -2 -2
Height
1399 1396 1395 1398 1405 1408 1409 1413 1429 1426 1432 1434 1435 1439 1442 1446 1453 1458 1462 1466 1470 1473 1476 1479 1480 1482 1482 1482 1482 1482 1481 1480 1478 1475 1473 1470 1466 1463 1460 1457 1454 1451 1447 1445
1404 1401 1408 1411 1406 1403 1412 1414 1415 1418 1419 1420 1428 1436 1444 1445 1450 1455 1459 1463 1466 1470 1472 1475 1477 1479 1479 1479 1478 1478 1476 1474 1471 1468 1465 1463 1461 1457 1453 1449 1445 1443 1441 1438
1402 1404 1412 1412 1404 1406 1405 1404 1407 1418 1414 1416 1427 1430 1437 1442 1446 1451 1456 1459 1463 1467 1470 1473 1475 1475 1476 1476 1475 1472 1470 1468 1465 1462 1459 1456 1453 1448 1444 1441 1439 1435 1431 1430
1413 1416 1414 1386 1384 1389 1395 1396 1402 1407 1409 1411 1423 1430 1435 1441 1444 1451 1455 1459 1462 1466 1469 1470 1472 1473 1473 1472 1470 1468 1465 1462 1460 1456 1453 1448 1444 1442 1439 1435 1432 1428 1424 1422
1405 1405 1400 1387 1387 1390 1393 1396 1392 1400 1404 1410 1420 1430 1441 1442 1446 1449 1454 1458 1462 1464 1467 1469 1470 1470 1469 1467 1464 1461 1460 1458 1455 1452 1447 1443 1438 1434 1432 1431 1426 1423 1419 1415
1408 1401 1394 1384 1379 1377 1383 1393 1386 1388 1395 1407 1415 1426 1438 1442 1446 1450 1454 1457 1461 1464 1466 1465 1464 1463 1462 1459 1459 1459 1457 1455 1452 1448 1444 1439 1436 1430 1426 1424 1422 1418 1413 1410
1402 1401 1397 1380 1376 1379 1397 1388 1383 1383 1389 1403 1410 1414 1429 1440 1445 1449 1452 1456 1459 1460 1458 1457 1456 1455 1456 1457 1456 1455 1452 1450 1446 1444 1440 1436 1432 1427 1423 1421 1418 1413 1409 1405
1403 1404 1393 1371 1378 1379 1379 1382 1380 1386 1393 1405 1411 1419 1428 1436 1441 1445 1448 1451 1451 1451 1451 1451 1452 1452 1453 1452 1451 1450 1448 1445 1442 1440 1436 1432 1428 1426 1423 1418 1413 1408 1403 1398
1381 1376 1368 1367 1369 1371 1373 1376 1384 1383 1395 1399 1410 1418 1425 1431 1436 1440 1443 1445 1447 1447 1449 1450 1450 1449 1449 1447 1445 1444 1442 1440 1436 1434 1432 1429 1424 1422 1419 1414 1409 1404 1398 1393
1375 1367 1367 1369 1372 1374 1378 1378 1384 1388 1395 1403 1410 1419 1425 1430 1434 1436 1439 1441 1442 1443 1446 1447 1446 1446 1446 1445 1443 1440 1437 1433 1431 1428 1425 1421 1420 1418 1416 1410 1404 1399 1394 1388
1368 1365 1367 1370 1371 1375 1382 1383 1387 1394 1397 1403 1409 1416 1421 1426 1430 1434 1436 1437 1439 1441 1443 1445 1445 1444 1443 1441 1439 1437 1434 1429 1427 1424 1418 1417 1413 1412 1410 1406 1401 1395 1391 1385
1351 1352 1355 1363 1369 1375 1379 1384 1388 1391 1399 1405 1407 1411 1416 1421 1426 1430 1433 1435 1437 1439 1440 1442 1443 1442 1440 1438 1436 1434 1432 1429 1424 1417 1414 1412 1409 1405 1404 1400 1395 1392 1387 1382
1343 1347 1351 1357 1365 1372 1377 1384 1388 1392 1397 1402 1408 1410 1413 1418 1423 1427 1430 1433 1434 1437 1438 1439 1439 1440 1438 1436 1434 1432 1429 1427 1421 1417 1413 1409 1406 1401 1395 1393 1391 1387 1382 1377
1341 1347 1354 1357 1364 1371 1377 1384 1389 1394 1398 1403 1406 1410 1412 1415 1419 1425 1428 1431 1433 1433 1435 1437 1437 1436 1434 1433 1432 1429 1427 1421 1419 1417 1412 1409 1403 1398 1394 1390 1385 1380 1377 1373
1340 1344 1349 1358 1365 1371 1377 1382 1389 1394 1399 1403 1408 1410 1413 1414 1415 1420 1425 1428 1429 1431 1432 1433 1433 1432 1430 1429 1428 1426 1422 1417 1415 1413 1410 1406 1399 1394 1391 1387 1383 1378 1372 1368
1340 1344 1347 1353 1362 1368 1377 1383 1388 1394 1398 1401 1405 1408 1411 1413 1416 1418 1420 1422 1424 1427 1428 1427 1427 1428 1426 1425 1423 1420 1417 1416 1413 1410 1405 1401 1396 1390 1386 1384 1379 1375 1370 1365
1341 1348 1351 1355 1362 1369 1376 1381 1385 1391 1396 1400 1404 1407 1408 1411 1413 1414 1415 1418 1420 1422 1422 1420 1420 1421 1419 1418 1416 1414 1413 1412 1408 1405 1400 1396 1391 1387 1383 1380 1376 1371 1367 1363
1341 1345 1349 1352 1362 1371 1377 1381 1384 1389 1393 1397 1402 1404 1406 1407 1409 1410 1412 1413 1414 1415 1415 1414 1413 1413 1413 1411 1409 1408 1408 1406 1402 1398 1395 1391 1387 1383 1379 1375 1372 1367 1363 1359
1345 1350 1353 1358 1364 1372 1375 1381 1383 1386 1391 1395 1398 1400 1402 1404 1405 1405 1407 1407 1407 1406 1406 1407 1406 1404 1403 1403 1402 1402 1400 1398 1395 1392 1389 1385 1382 1379 1374 1371 1367 1363 1359 1355
1348 1352 1356 1360 1366 1370 1376 1379 1382 1386 1388 1392 1395 1398 1400 1400 1401 1401 1401 1398 1399 1399 1398 1398 1397 1395 1394 1394 1394 1393 1392 1390 1388 1385 1382 1379 1376 1372 1369 1366 1362 1358 1354 1351
1349 1352 1356 1361 1365 1370 1375 1378 1381 1384 1386 1388 1391 1393 1394 1395 1394 1393 1391 1389 1391 1391 1389 1388 1386 1384 1385 1385 1385 1384 1383 1382 1380 1377 1374 1372 1369 1366 1363 1360 1356 1353 1349 1347
1348 1352 1357 1361 1365 1369 1373 1376 1379 1381 1383 1385 1386 1387 1386 1386 1385 1384 1384 1383 1381 1381 1379 1378 1377 1377 1377 1377 1376 1375 1374 1372 1371 1369 1366 1364 1362 1359 1356 1353 1350 1347 1345 1342
1348 1352 1357 1361 1364 1368 1372 1375 1377 1377 1378 1378 1378 1378 1378 1378 1378 1377 1376 1376 1374 1372 1372 1371 1369 1369 1368 1367 1366 1366 1365 1363 1361 1360 1358 1357 1355 1352 1350 1347 1344 1342 1340 1337
1349 1354 1359 1361 1363 1367 1370 1371 1371 1371 1372 1373 1373 1373 1373 1373 1373 1373 1371 1370 1369 1368 1366 1365 1364 1363 1362 1360 1359 1357 1356 1355 1353 1352 1350 1349 1347 1345 1343 1341 1338 1336 1334 1331
1350 1354 1357 1359 1361 1364 1366 1366 1368 1369 1369 1370 1370 1369 1369 1368 1368 1367 1366 1365 1364 1362 1361 1359 1358 1356 1355 1354 1352 1351 1349 1347 1346 1344 1343 1341 1339 1337 1336 1334 1331 1329 1326 1325
1351 1353 1355 1357 1359 1361 1363 1364 1365 1365 1365 1366 1366 1365 1365 1364 1363 1362 1360 1359 1357 1355 1354 1352 1351 1349 1348 1346 1344 1343 1341 1339 1338 1336 1334 1332 1331 1329 1327 1325 1323 1321 1319 1317
1349 1351 1353 1355 1357 1358 1360 1361 1361 1362 1362 1361 1361 1360 1360 1358 1357 1355 1353 1351 1349 1348 1346 1344 1342 1341 1339 1337 1335 1333 1331 1329 1328 1326 1325 1323 1321 1320 1318 1317 1315 1313 1311 1310